CES2416 ZBAD-ZLLL

Flight info

Callsign CES2416
Flight time N/A
Altitude 36100
Route PEGSO7F PEGSO B215 GODON W43 ATERI W193 NNW DCT QIY W213 OVTIB
Aircraft A320/M-SDE3FGHIRWY/LB1

Departure

Time 2026-04-25 11:24
Airport Beijing Daxing International Airport (ZBAD)

Arrival

Time N/A
Airport Lanzhou Zhongchuan International Airport (ZLLL)
Time Latitude Longitude Altitude Speed Heading
2026-04-25 11:13 39.50801 116.41818 89 ft 0 kts 295°
2026-04-25 11:14 39.50798 116.41827 89 ft 2 kts 295°
2026-04-25 11:14 39.50791 116.41844 89 ft 2 kts 295°
2026-04-25 11:14 39.50785 116.41862 89 ft 1 kts 295°
2026-04-25 11:14 39.50780 116.41874 89 ft 2 kts 289°
2026-04-25 11:15 39.50779 116.41893 89 ft 2 kts 266°
2026-04-25 11:15 39.50781 116.41911 89 ft 2 kts 247°
2026-04-25 11:15 39.50789 116.41928 89 ft 2 kts 228°
2026-04-25 11:15 39.50800 116.41940 89 ft 2 kts 209°
2026-04-25 11:16 39.50809 116.41946 89 ft 0 kts 202°
2026-04-25 11:17 39.50782 116.41930 89 ft 10 kts 204°
2026-04-25 11:17 39.50673 116.41869 89 ft 21 kts 203°
2026-04-25 11:17 39.50539 116.41795 89 ft 20 kts 202°
2026-04-25 11:18 39.50406 116.41776 89 ft 19 kts 173°
2026-04-25 11:18 39.50252 116.41800 89 ft 23 kts 172°
2026-04-25 11:18 39.50161 116.41712 89 ft 18 kts 263°
2026-04-25 11:18 39.50145 116.41532 89 ft 24 kts 262°
2026-04-25 11:19 39.50120 116.41276 89 ft 31 kts 263°
2026-04-25 11:19 39.50091 116.40977 89 ft 34 kts 263°
2026-04-25 11:19 39.50064 116.40678 89 ft 31 kts 262°
2026-04-25 11:19 39.50038 116.40407 89 ft 29 kts 263°
2026-04-25 11:20 39.50071 116.40223 89 ft 21 kts 346°
2026-04-25 11:20 39.50267 116.40191 89 ft 33 kts 353°
2026-04-25 11:20 39.50494 116.40155 89 ft 32 kts 352°
2026-04-25 11:20 39.50729 116.40118 89 ft 35 kts 352°
2026-04-25 11:21 39.50985 116.40078 89 ft 36 kts 352°
2026-04-25 11:21 39.51225 116.40039 89 ft 33 kts 352°
2026-04-25 11:21 39.51452 116.40003 89 ft 31 kts 352°
2026-04-25 11:21 39.51666 116.39970 89 ft 30 kts 352°
2026-04-25 11:22 39.51803 116.39903 89 ft 17 kts 277°
2026-04-25 11:22 39.51797 116.39797 89 ft 17 kts 262°
2026-04-25 11:22 39.51770 116.39503 89 ft 34 kts 263°
2026-04-25 11:22 39.51741 116.39208 89 ft 31 kts 262°
2026-04-25 11:23 39.51715 116.38918 89 ft 33 kts 263°
2026-04-25 11:23 39.51639 116.38762 89 ft 18 kts 202°
2026-04-25 11:23 39.51455 116.38775 89 ft 50 kts 172°
2026-04-25 11:23 39.50885 116.38866 90 ft 111 kts 173°
2026-04-25 11:24 39.49929 116.39016 98 ft 161 kts 175°
2026-04-25 11:24 39.48772 116.39198 546 ft 168 kts 175°
2026-04-25 11:24 39.47621 116.39372 1229 ft 166 kts 176°
2026-04-25 11:24 39.46511 116.39539 1874 ft 164 kts 176°
2026-04-25 11:25 39.45322 116.39714 2268 ft 178 kts 177°
2026-04-25 11:25 39.44016 116.39905 2625 ft 195 kts 176°
2026-04-25 11:25 39.42598 116.40113 2893 ft 218 kts 176°
2026-04-25 11:25 39.41019 116.40356 3319 ft 237 kts 176°
2026-04-25 11:26 39.39324 116.40623 3838 ft 251 kts 176°
2026-04-25 11:26 39.37579 116.40901 4556 ft 256 kts 176°
2026-04-25 11:26 39.35803 116.41129 5265 ft 260 kts 184°
2026-04-25 11:26 39.34071 116.40547 5923 ft 260 kts 212°
2026-04-25 11:27 39.32721 116.39006 6612 ft 262 kts 236°
2026-04-25 11:27 39.31819 116.36976 7250 ft 266 kts 242°
2026-04-25 11:27 39.30937 116.34875 7619 ft 269 kts 242°
2026-04-25 11:27 39.30341 116.33459 7712 ft 270 kts 242°
2026-04-25 11:28 39.29137 116.30617 7711 ft 269 kts 242°
2026-04-25 11:28 39.28238 116.28504 7714 ft 269 kts 243°
2026-04-25 11:28 39.27335 116.26385 7718 ft 270 kts 242°
2026-04-25 11:28 39.26431 116.24267 7716 ft 270 kts 243°
2026-04-25 11:29 39.25523 116.22146 7715 ft 269 kts 243°
2026-04-25 11:29 39.24623 116.20041 7715 ft 270 kts 242°
2026-04-25 11:29 39.23719 116.17931 7718 ft 270 kts 242°
2026-04-25 11:29 39.22802 116.15794 7720 ft 270 kts 243°
2026-04-25 11:30 39.21893 116.13675 7719 ft 270 kts 243°
2026-04-25 11:30 39.20983 116.11556 7719 ft 270 kts 243°
2026-04-25 11:30 39.20080 116.09451 7738 ft 272 kts 243°
2026-04-25 11:30 39.19161 116.07313 8156 ft 278 kts 243°
2026-04-25 11:31 39.18232 116.05164 8978 ft 276 kts 243°
2026-04-25 11:31 39.17299 116.03000 9675 ft 279 kts 244°
2026-04-25 11:31 39.16354 116.00803 10240 ft 285 kts 244°
2026-04-25 11:31 39.15365 115.98497 10562 ft 300 kts 244°
2026-04-25 11:32 39.14341 115.96124 11080 ft 307 kts 244°
2026-04-25 11:32 39.13298 115.93720 11714 ft 309 kts 244°
2026-04-25 11:32 39.12255 115.91319 12343 ft 310 kts 244°
2026-04-25 11:32 39.11206 115.88902 12937 ft 313 kts 244°
2026-04-25 11:33 39.10134 115.86436 13521 ft 315 kts 245°
2026-04-25 11:33 39.09067 115.83981 14118 ft 316 kts 245°
2026-04-25 11:33 39.08001 115.81522 14656 ft 319 kts 244°
2026-04-25 11:33 39.06911 115.79015 15197 ft 322 kts 244°
2026-04-25 11:34 39.05813 115.76492 15762 ft 323 kts 244°
2026-04-25 11:34 39.04720 115.73981 16296 ft 325 kts 244°
2026-04-25 11:34 39.03612 115.71440 16821 ft 327 kts 244°
2026-04-25 11:34 39.02492 115.68874 17319 ft 329 kts 244°
2026-04-25 11:35 39.01380 115.66334 17828 ft 331 kts 244°
2026-04-25 11:35 39.00243 115.63733 18318 ft 333 kts 244°
2026-04-25 11:35 38.99112 115.61147 18745 ft 337 kts 244°
2026-04-25 11:35 38.97955 115.58510 19185 ft 340 kts 244°
2026-04-25 11:36 38.96787 115.55846 19622 ft 342 kts 245°
2026-04-25 11:36 38.95622 115.53194 20050 ft 345 kts 245°
2026-04-25 11:36 38.94474 115.50473 20499 ft 346 kts 248°
2026-04-25 11:36 38.93456 115.47688 20919 ft 347 kts 250°
2026-04-25 11:37 38.92478 115.44893 21340 ft 348 kts 251°
2026-04-25 11:37 38.91483 115.42046 21734 ft 351 kts 251°
2026-04-25 11:37 38.90467 115.39143 22119 ft 354 kts 251°
2026-04-25 11:37 38.89465 115.36282 22533 ft 355 kts 251°
2026-04-25 11:38 38.88446 115.33382 22899 ft 358 kts 251°
2026-04-25 11:38 38.87424 115.30470 23289 ft 359 kts 251°
2026-04-25 11:38 38.86404 115.27565 23658 ft 362 kts 251°
2026-04-25 11:38 38.85368 115.24618 24025 ft 364 kts 251°
2026-04-25 11:39 38.84320 115.21649 24401 ft 366 kts 251°
2026-04-25 11:39 38.83271 115.18669 24750 ft 368 kts 252°
2026-04-25 11:39 38.82222 115.15698 25107 ft 370 kts 252°
2026-04-25 11:39 38.81168 115.12713 25466 ft 371 kts 252°
2026-04-25 11:40 38.80104 115.09707 25784 ft 373 kts 252°
2026-04-25 11:40 38.79019 115.06643 26087 ft 376 kts 252°
2026-04-25 11:40 38.77942 115.03605 26385 ft 378 kts 252°
2026-04-25 11:40 38.76861 115.00555 26696 ft 380 kts 252°
2026-04-25 11:41 38.75763 114.97473 26999 ft 382 kts 252°
2026-04-25 11:41 38.74657 114.94360 27288 ft 384 kts 252°
2026-04-25 11:41 38.73557 114.91260 27596 ft 386 kts 252°
2026-04-25 11:41 38.72442 114.88135 27921 ft 387 kts 252°
2026-04-25 11:42 38.71323 114.84996 28209 ft 389 kts 252°
2026-04-25 11:42 38.70195 114.81827 28491 ft 390 kts 252°
2026-04-25 11:42 38.69079 114.78697 28745 ft 392 kts 252°
2026-04-25 11:42 38.67945 114.75520 28996 ft 394 kts 252°
2026-04-25 11:43 38.66806 114.72330 29250 ft 396 kts 252°
2026-04-25 11:43 38.65651 114.69112 29526 ft 398 kts 253°
2026-04-25 11:43 38.64507 114.65920 29771 ft 399 kts 253°
2026-04-25 11:43 38.63349 114.62693 29998 ft 401 kts 253°
2026-04-25 11:44 38.62190 114.59467 30245 ft 403 kts 253°
2026-04-25 11:44 38.61009 114.56208 30489 ft 404 kts 253°
2026-04-25 11:44 38.59831 114.52974 30705 ft 405 kts 253°
2026-04-25 11:44 38.58641 114.49699 30932 ft 407 kts 253°
2026-04-25 11:45 38.57458 114.46436 31141 ft 408 kts 253°
2026-04-25 11:45 38.56269 114.43154 31377 ft 409 kts 253°
2026-04-25 11:45 38.55070 114.39845 31597 ft 409 kts 253°
2026-04-25 11:45 38.53874 114.36552 31850 ft 409 kts 254°
2026-04-25 11:46 38.52679 114.33260 32061 ft 410 kts 253°
2026-04-25 11:46 38.51491 114.29992 32256 ft 412 kts 253°
2026-04-25 11:46 38.50273 114.26644 32469 ft 412 kts 253°
2026-04-25 11:46 38.49070 114.23341 32698 ft 413 kts 253°
2026-04-25 11:47 38.47858 114.20023 33017 ft 411 kts 253°
2026-04-25 11:47 38.46658 114.16742 33337 ft 409 kts 253°
2026-04-25 11:47 38.45452 114.13447 33643 ft 407 kts 254°
2026-04-25 11:47 38.44264 114.10199 33915 ft 405 kts 254°
2026-04-25 11:48 38.43076 114.06956 34220 ft 403 kts 254°
2026-04-25 11:48 38.41907 114.03767 34393 ft 404 kts 254°
2026-04-25 11:48 38.40707 114.00493 34564 ft 405 kts 255°
2026-04-25 11:48 38.39525 113.97270 34726 ft 405 kts 254°
2026-04-25 11:49 38.38332 113.94013 34923 ft 406 kts 254°
2026-04-25 11:49 38.37142 113.90775 35009 ft 408 kts 254°
2026-04-25 11:49 38.35933 113.87497 35201 ft 408 kts 254°
2026-04-25 11:49 38.34732 113.84244 35397 ft 407 kts 254°
2026-04-25 11:50 38.33529 113.80993 35514 ft 409 kts 254°
2026-04-25 11:50 38.32303 113.77729 35615 ft 411 kts 254°
2026-04-25 11:50 38.31068 113.74454 35718 ft 412 kts 253°
2026-04-25 11:50 38.29827 113.71172 35848 ft 412 kts 253°
2026-04-25 11:51 38.27355 113.64635 35942 ft 413 kts 253°
2026-04-25 11:51 38.24858 113.58037 35957 ft 413 kts 254°
2026-04-25 11:52 38.22385 113.51516 35972 ft 413 kts 253°
2026-04-25 11:52 38.19888 113.44944 35990 ft 413 kts 253°
2026-04-25 11:53 38.17400 113.38411 35994 ft 413 kts 253°
2026-04-25 11:53 38.14915 113.31821 36010 ft 413 kts 253°
2026-04-25 11:54 38.12468 113.25245 36026 ft 414 kts 253°
2026-04-25 11:55 38.08776 113.15359 36027 ft 413 kts 253°
2026-04-25 11:55 38.06332 113.08833 36035 ft 413 kts 253°
2026-04-25 11:56 38.03860 113.02252 36024 ft 413 kts 253°
2026-04-25 11:56 38.01375 112.95652 36022 ft 414 kts 253°
2026-04-25 11:57 37.98914 112.89127 36011 ft 412 kts 253°
2026-04-25 11:57 37.96444 112.82591 36007 ft 412 kts 253°
2026-04-25 11:58 37.93964 112.76040 35997 ft 414 kts 253°
2026-04-25 11:58 37.91480 112.69492 36299 ft 413 kts 253°
2026-04-25 11:58 37.90239 112.66228 36166 ft 412 kts 253°
2026-04-25 11:59 37.89001 112.62978 35812 ft 411 kts 253°
2026-04-25 11:59 37.87767 112.59743 36033 ft 413 kts 253°
2026-04-25 11:59 37.86435 112.56513 35986 ft 414 kts 251°
2026-04-25 12:00 37.82358 112.46864 35960 ft 416 kts 251°
2026-04-25 12:01 37.78286 112.37260 35990 ft 415 kts 251°
2026-04-25 12:01 37.75727 112.30795 36010 ft 411 kts 253°
2026-04-25 12:02 37.71990 112.21023 36047 ft 412 kts 253°
2026-04-25 12:02 37.69515 112.14567 36060 ft 411 kts 253°
2026-04-25 12:03 37.67026 112.08089 36064 ft 411 kts 253°
2026-04-25 12:03 37.64543 112.01635 36070 ft 409 kts 253°
2026-04-25 12:04 37.62062 111.95201 36069 ft 410 kts 253°
2026-04-25 12:04 37.59568 111.88751 36072 ft 411 kts 253°
2026-04-25 12:05 37.57077 111.82313 36078 ft 411 kts 253°
2026-04-25 12:05 37.54566 111.75843 36085 ft 411 kts 253°
2026-04-25 12:06 37.52052 111.69410 36088 ft 411 kts 253°
2026-04-25 12:06 37.49537 111.62987 36086 ft 411 kts 253°
2026-04-25 12:07 37.47012 111.56525 36080 ft 411 kts 253°
2026-04-25 12:07 37.44490 111.50086 36067 ft 413 kts 253°
2026-04-25 12:08 37.41970 111.43662 36060 ft 411 kts 253°
2026-04-25 12:08 37.39435 111.37209 36053 ft 413 kts 253°
2026-04-25 12:09 37.36876 111.30711 36055 ft 414 kts 252°
2026-04-25 12:09 37.34334 111.24272 36058 ft 413 kts 252°
2026-04-25 12:10 37.31776 111.17811 36057 ft 413 kts 252°
2026-04-25 12:10 37.29223 111.11367 36051 ft 413 kts 252°
2026-04-25 12:11 37.26676 111.04952 36041 ft 413 kts 252°
2026-04-25 12:11 37.24113 110.98505 36027 ft 413 kts 252°
2026-04-25 12:12 37.21987 110.93175 36018 ft 412 kts 252°
2026-04-25 12:12 37.18994 110.85680 36011 ft 412 kts 252°
2026-04-25 12:13 37.16426 110.79263 36010 ft 412 kts 252°
2026-04-25 12:13 37.13860 110.72868 36012 ft 413 kts 252°
2026-04-25 12:14 37.11277 110.66442 36006 ft 414 kts 251°
2026-04-25 12:14 37.08659 110.60027 35987 ft 416 kts 251°
2026-04-25 12:15 37.06038 110.53622 35984 ft 417 kts 251°
2026-04-25 12:15 37.03399 110.47182 35970 ft 416 kts 251°
2026-04-25 12:16 37.00767 110.40776 35973 ft 418 kts 251°
2026-04-25 12:16 36.98102 110.34287 35969 ft 417 kts 250°
2026-04-25 12:17 36.95453 110.27864 35963 ft 416 kts 251°
2026-04-25 12:17 36.92803 110.21444 35967 ft 419 kts 251°
2026-04-25 12:18 36.90158 110.15044 35956 ft 418 kts 250°
2026-04-25 12:18 36.87484 110.08592 35951 ft 418 kts 250°
2026-04-25 12:19 36.83475 109.98943 35973 ft 418 kts 250°
2026-04-25 12:20 36.80806 109.92531 35988 ft 419 kts 250°
2026-04-25 12:20 36.78128 109.86112 35988 ft 419 kts 250°
2026-04-25 12:21 36.75442 109.79688 35991 ft 418 kts 250°
2026-04-25 12:21 36.72765 109.73297 35991 ft 418 kts 250°
2026-04-25 12:22 36.70064 109.66866 35997 ft 418 kts 250°
2026-04-25 12:22 36.67286 109.60510 35995 ft 424 kts 244°
2026-04-25 12:23 36.63311 109.54951 36008 ft 440 kts 228°
2026-04-25 12:23 36.58053 109.50916 36012 ft 456 kts 210°
2026-04-25 12:24 36.51880 109.48689 36016 ft 464 kts 199°
2026-04-25 12:24 36.45893 109.46191 36015 ft 447 kts 217°
2026-04-25 12:25 36.41089 109.41542 36022 ft 429 kts 236°
2026-04-25 12:25 36.37896 109.35561 36025 ft 413 kts 253°
2026-04-25 12:26 36.35749 109.28983 36028 ft 411 kts 255°
2026-04-25 12:26 36.33643 109.22378 36031 ft 412 kts 255°
2026-04-25 12:27 36.31529 109.15815 36037 ft 412 kts 255°
2026-04-25 12:27 36.29406 109.09251 36042 ft 413 kts 255°
2026-04-25 12:28 36.27267 109.02665 36052 ft 413 kts 255°
2026-04-25 12:28 36.25126 108.96096 36060 ft 412 kts 255°
2026-04-25 12:29 36.22979 108.89526 36056 ft 412 kts 255°
2026-04-25 12:29 36.20836 108.82974 36052 ft 411 kts 255°
2026-04-25 12:30 36.18691 108.76437 36051 ft 411 kts 255°
2026-04-25 12:30 36.16550 108.69930 36050 ft 410 kts 255°
2026-04-25 12:31 36.14396 108.63392 36047 ft 409 kts 255°
2026-04-25 12:31 36.12254 108.56905 36053 ft 409 kts 255°
2026-04-25 12:32 36.10100 108.50397 36060 ft 409 kts 255°
2026-04-25 12:32 36.07951 108.43915 36065 ft 409 kts 255°
2026-04-25 12:33 36.05790 108.37415 36070 ft 409 kts 255°
2026-04-25 12:33 36.03643 108.30968 36065 ft 409 kts 254°
2026-04-25 12:34 36.01475 108.24474 36059 ft 408 kts 253°
2026-04-25 12:34 35.99314 108.18017 36047 ft 409 kts 254°
2026-04-25 12:35 35.97150 108.11559 36031 ft 408 kts 254°
2026-04-25 12:35 35.94988 108.05129 36011 ft 407 kts 254°
2026-04-25 12:36 35.92829 107.98716 35997 ft 406 kts 254°
2026-04-25 12:36 35.90671 107.92313 35992 ft 406 kts 254°
2026-04-25 12:37 35.88502 107.85894 35994 ft 406 kts 253°
2026-04-25 12:37 35.86334 107.79495 35999 ft 407 kts 254°
2026-04-25 12:38 35.84148 107.73055 36015 ft 408 kts 254°
2026-04-25 12:38 35.82180 107.66547 36017 ft 403 kts 260°
2026-04-25 12:39 35.81244 107.59850 36027 ft 397 kts 271°
2026-04-25 12:39 35.81389 107.53104 36021 ft 392 kts 281°
2026-04-25 12:40 35.82504 107.46594 36025 ft 390 kts 287°
2026-04-25 12:40 35.83865 107.40156 36026 ft 390 kts 287°
2026-04-25 12:41 35.85246 107.33688 36036 ft 391 kts 286°
2026-04-25 12:41 35.86248 107.28969 36041 ft 391 kts 287°